Location: The Jewett Observatory
(46.7288°N, 117.1525°W)
Time: 06:19:06
(UTC-07:00)

Cosmos 1633 - Visible Passes

Search period start: 28 July 2015 00:00
Search period end: 07 August 2015 00:00
Orbit: 481 x 504 km, 82.5° (Epoch: 27 July)

Date Brightness Start Highest point End Pass type
(mag) Time Alt. Az. Time Alt. Az. Time Alt. Az.
28 Jul 5.3 01:34:05 11° WNW 01:34:36 11° WNW 01:35:34 10° NW visible
28 Jul 3.7 23:37:25 35° ENE 23:37:25 35° ENE 23:40:07 10° NNE visible
29 Jul 5.0 01:11:57 15° WNW 01:12:10 15° WNW 01:14:22 10° NNW visible
29 Jul 4.1 23:15:16 25° ENE 23:15:16 25° ENE 23:17:38 10° NNE visible
30 Jul 4.6 00:49:47 21° WNW 00:49:47 21° WNW 00:52:37 10° NNW visible
30 Jul 4.5 22:53:05 18° ENE 22:53:05 18° ENE 22:54:59 10° NE visible
31 Jul 4.1 00:27:37 30° WNW 00:27:37 30° WNW 00:30:42 10° N visible
31 Jul 4.9 22:30:54 13° ENE 22:30:54 13° ENE 22:32:01 10° ENE visible
01 Aug 3.5 00:05:25 43° WNW 00:05:25 43° WNW 00:08:37 10° N visible
01 Aug 3.0 23:43:13 62° NW 23:43:13 62° NW 23:46:28 10° N visible
02 Aug 2.7 23:20:59 66° NE 23:20:59 66° NE 23:24:13 10° NNE visible
03 Aug 3.0 22:58:44 47° ENE 22:58:44 47° ENE 23:01:52 10° NNE visible
04 Aug 5.3 00:33:16 12° WNW 00:33:58 12° WNW 00:35:31 10° NW visible
04 Aug 3.5 22:36:28 33° E 22:36:28 33° E 22:39:27 10° NNE visible
05 Aug 4.9 00:10:59 17° W 00:11:31 17° WNW 00:13:59 10° NNW visible
05 Aug 4.0 22:14:11 23° E 22:14:11 23° E 22:16:52 10° NE visible
05 Aug 4.4 23:48:42 24° W 23:49:07 24° WNW 23:52:08 10° NNW visible
06 Aug 4.4 21:51:52 16° E 21:51:52 16° E 21:54:06 10° NE visible
06 Aug 3.8 23:26:23 34° W 23:26:44 35° WNW 23:30:07 10° N visible
